Hourly Weather Svistuny

Today, 3 August, Monday

Time Temperature Precipitation Wind Pressure Humidity
00:00 +11°C° 0 mm 1 mps 739 mmHg 92%
01:00 +11°C° 0 mm 1 mps 739 mmHg 93%
02:00 +9°C° 0 mm 2 mps 739 mmHg 94%
03:00 +10°C° 0 mm 2 mps 740 mmHg 93%
04:00 +10°C° 0 mm 2 mps 740 mmHg 92%
05:00 +10°C° 0 mm 2 mps 740 mmHg 91%
06:00 +13°C° 0 mm 2 mps 740 mmHg 85%
07:00 +15°C° 0 mm 2 mps 740 mmHg 79%
08:00 +17°C° 0 mm 3 mps 740 mmHg 74%
09:00 +18°C° 0 mm 3 mps 740 mmHg 69%
10:00 +19°C° 0 mm 3 mps 740 mmHg 63%
11:00 +20°C° 0 mm 4 mps 740 mmHg 58%
12:00 +21°C° 0 mm 4 mps 740 mmHg 58%
13:00 +21°C° 0 mm 4 mps 739 mmHg 58%
14:00 +21°C° 0 mm 4 mps 739 mmHg 58%
15:00 +21°C° 0 mm 3 mps 739 mmHg 61%
16:00 +21°C° 0 mm 3 mps 739 mmHg 64%
17:00 +21°C° 0 mm 3 mps 739 mmHg 67%
18:00 +20°C° 0 mm 3 mps 739 mmHg 74%
19:00 +18°C° 0 mm 3 mps 739 mmHg 82%
20:00 +16°C° 0 mm 2 mps 739 mmHg 90%
21:00 +16°C° 0 mm 2 mps 740 mmHg 92%
22:00 +15°C° 0 mm 2 mps 740 mmHg 94%
23:00 +15°C° 0 mm 2 mps 740 mmHg 96%

Tomorrow, 4 August, Tuesday

Time Temperature Precipitation Wind Pressure Humidity
00:00 +14°C° 0 mm 2 mps 740 mmHg 96%
01:00 +14°C° 0 mm 2 mps 740 mmHg 97%
02:00 +14°C° 0 mm 2 mps 741 mmHg 97%
03:00 +14°C° 0 mm 2 mps 741 mmHg 97%
04:00 +14°C° 0 mm 2 mps 741 mmHg 96%
05:00 +14°C° 0 mm 2 mps 741 mmHg 96%
06:00 +16°C° 0 mm 2 mps 741 mmHg 90%
07:00 +17°C° 0 mm 2 mps 741 mmHg 85%
08:00 +19°C° 0 mm 3 mps 742 mmHg 79%
09:00 +20°C° 0 mm 3 mps 742 mmHg 74%
10:00 +21°C° 0 mm 3 mps 742 mmHg 69%
11:00 +22°C° 0 mm 4 mps 742 mmHg 63%
12:00 +23°C° 0 mm 4 mps 742 mmHg 62%
13:00 +23°C° 0 mm 4 mps 742 mmHg 60%
14:00 +25°C° 0 mm 4 mps 742 mmHg 59%
15:00 +23°C° 0 mm 4 mps 742 mmHg 62%
16:00 +23°C° 0 mm 4 mps 741 mmHg 65%
17:00 +22°C° 0 mm 3 mps 741 mmHg 67%
18:00 +21°C° 0 mm 3 mps 741 mmHg 74%
19:00 +19°C° 0 mm 3 mps 741 mmHg 80%
20:00 +17°C° 0 mm 2 mps 742 mmHg 87%
21:00 +17°C° 0 mm 3 mps 742 mmHg 88%
22:00 +16°C° 0 mm 3 mps 742 mmHg 90%
23:00 +16°C° 0 mm 3 mps 742 mmHg 91%

Day after tomorrow, 5 August, Wednesday

Time Temperature Precipitation Wind Pressure Humidity
00:00 +16°C° 0 mm 3 mps 742 mmHg 91%
01:00 +16°C° 0 mm 3 mps 742 mmHg 91%
02:00 +14°C° 0 mm 3 mps 742 mmHg 91%
03:00 +16°C° 0 mm 3 mps 742 mmHg 90%
04:00 +16°C° 0 mm 3 mps 742 mmHg 90%
05:00 +16°C° 0 mm 3 mps 742 mmHg 89%
06:00 +17°C° 0 mm 4 mps 742 mmHg 84%
07:00 +19°C° 0 mm 4 mps 742 mmHg 79%
08:00 +20°C° 0 mm 4 mps 743 mmHg 74%
09:00 +21°C° 0 mm 4 mps 743 mmHg 70%
10:00 +23°C° 0 mm 4 mps 743 mmHg 65%
11:00 +25°C° 0 mm 4 mps 743 mmHg 61%
12:00 +26°C° 0 mm 4 mps 743 mmHg 59%
13:00 +26°C° 0 mm 4 mps 743 mmHg 58%
14:00 +27°C° 0 mm 4 mps 744 mmHg 57%
15:00 +26°C° 0 mm 3 mps 744 mmHg 62%
16:00 +26°C° 0 mm 2 mps 744 mmHg 67%
17:00 +25°C° 0 mm 2 mps 744 mmHg 72%
18:00 +24°C° 0 mm 2 mps 744 mmHg 78%
19:00 +21°C° 0 mm 2 mps 744 mmHg 84%
20:00 +20°C° 0 mm 1 mps 744 mmHg 89%
21:00 +20°C° 0 mm 1 mps 744 mmHg 91%
22:00 +19°C° 0 mm 1 mps 744 mmHg 93%
23:00 +16°C° 0 mm 0 mps 744 mmHg 94%

6 August, Thursday

Time Temperature Precipitation Wind Pressure Humidity
00:00 +16°C° 0.1 mm 0 mps 745 mmHg 95%
01:00 +16°C° 0.1 mm 0 mps 745 mmHg 95%
02:00 +16°C° 0.1 mm 0 mps 745 mmHg 95%
03:00 +16°C° 0.7 mm 0 mps 745 mmHg 96%
04:00 +17°C° 0.7 mm 0 mps 745 mmHg 96%
05:00 +17°C° 0.7 mm 0 mps 745 mmHg 97%
06:00 +19°C° 1.5 mm 1 mps 745 mmHg 97%
07:00 +19°C° 1.5 mm 1 mps 746 mmHg 97%
08:00 +20°C° 1.5 mm 1 mps 746 mmHg 97%
09:00 +20°C° 0.4 mm 1 mps 746 mmHg 93%
10:00 +20°C° 0.4 mm 2 mps 746 mmHg 90%
11:00 +21°C° 0.4 mm 2 mps 746 mmHg 87%
12:00 +23°C° 0.2 mm 2 mps 746 mmHg 80%
13:00 +24°C° 0.2 mm 2 mps 746 mmHg 73%
14:00 +25°C° 0.2 mm 2 mps 746 mmHg 67%
15:00 +25°C° 0.1 mm 2 mps 746 mmHg 66%
16:00 +24°C° 0.1 mm 2 mps 746 mmHg 65%
17:00 +24°C° 0.1 mm 2 mps 746 mmHg 65%
18:00 +21°C° 0 mm 2 mps 746 mmHg 69%
19:00 +19°C° 0 mm 2 mps 747 mmHg 74%
20:00 +17°C° 0 mm 2 mps 747 mmHg 78%
21:00 +16°C° 0 mm 2 mps 747 mmHg 78%
22:00 +16°C° 0 mm 2 mps 747 mmHg 78%
23:00 +15°C° 0 mm 2 mps 747 mmHg 78%

7 August, Friday

Time Temperature Precipitation Wind Pressure Humidity
00:00 +14°C° 0 mm 2 mps 748 mmHg 79%
01:00 +14°C° 0 mm 2 mps 748 mmHg 81%
02:00 +13°C° 0 mm 2 mps 748 mmHg 82%
03:00 +13°C° 0 mm 2 mps 748 mmHg 84%
04:00 +13°C° 0 mm 2 mps 748 mmHg 86%
05:00 +13°C° 0 mm 2 mps 748 mmHg 88%
06:00 +15°C° 0 mm 2 mps 749 mmHg 83%
07:00 +17°C° 0 mm 2 mps 749 mmHg 78%
08:00 +18°C° 0 mm 3 mps 749 mmHg 73%
09:00 +20°C° 0 mm 3 mps 749 mmHg 68%
10:00 +21°C° 0 mm 2 mps 749 mmHg 63%
11:00 +23°C° 0 mm 2 mps 749 mmHg 59%
12:00 +24°C° 0.1 mm 2 mps 749 mmHg 59%
13:00 +24°C° 0.1 mm 2 mps 749 mmHg 59%
14:00 +24°C° 0.1 mm 2 mps 748 mmHg 59%
15:00 +23°C° 0.1 mm 2 mps 748 mmHg 65%
16:00 +23°C° 0.1 mm 2 mps 748 mmHg 70%
17:00 +21°C° 0.1 mm 2 mps 748 mmHg 75%
18:00 +20°C° 0 mm 2 mps 748 mmHg 78%
19:00 +19°C° 0 mm 2 mps 748 mmHg 80%
20:00 +17°C° 0 mm 2 mps 748 mmHg 82%
21:00 +17°C° 0 mm 2 mps 748 mmHg 83%
22:00 +16°C° 0 mm 2 mps 748 mmHg 84%
23:00 +16°C° 0 mm 2 mps 748 mmHg 85%

8 August, Saturday

Time Temperature Precipitation Wind Pressure Humidity
00:00 +15°C° 0 mm 2 mps 748 mmHg 88%
01:00 +15°C° 0 mm 2 mps 748 mmHg 90%
02:00 +14°C° 0 mm 2 mps 748 mmHg 92%
03:00 +14°C° 0 mm 2 mps 748 mmHg 92%
04:00 +13°C° 0 mm 2 mps 748 mmHg 92%
05:00 +13°C° 0 mm 2 mps 748 mmHg 92%
06:00 +15°C° 0 mm 2 mps 748 mmHg 86%
07:00 +17°C° 0 mm 2 mps 748 mmHg 80%
08:00 +19°C° 0 mm 2 mps 748 mmHg 73%
09:00 +20°C° 0 mm 2 mps 748 mmHg 68%
10:00 +23°C° 0 mm 2 mps 748 mmHg 62%
11:00 +24°C° 0 mm 3 mps 748 mmHg 56%
12:00 +24°C° 0 mm 3 mps 747 mmHg 55%
13:00 +25°C° 0 mm 3 mps 747 mmHg 54%
14:00 +25°C° 0 mm 3 mps 747 mmHg 53%
15:00 +24°C° 0 mm 2 mps 747 mmHg 57%
16:00 +24°C° 0 mm 2 mps 746 mmHg 62%
17:00 +24°C° 0 mm 2 mps 746 mmHg 66%
18:00 +21°C° 0 mm 2 mps 746 mmHg 72%
19:00 +19°C° 0 mm 2 mps 746 mmHg 77%
20:00 +17°C° 0 mm 2 mps 746 mmHg 82%
21:00 +16°C° 0 mm 2 mps 746 mmHg 85%
22:00 +15°C° 0 mm 2 mps 746 mmHg 88%
23:00 +15°C° 0 mm 2 mps 746 mmHg 91%
Show more